Location: Emblem
(62.4273°N, 6.4710°E)
Time: 21:13:08
(UTC+02:00)

Vanguard 2 - Pass Details

Date: 13 February 2023
Orbit: 553 x 2927 km, 32.9° (Epoch: 27 March)

Event Time Altitude Azimuth Distance (km) Brightness Sun altitude
Rises 20:26:26 0° 207° (SSW) 4,550 11.6 -23.0°
Reaches altitude 10° 20:32:24 10° 177° (S) 4,167 11.1 -23.6°
Maximum altitude 20:35:38 12° 160° (SSE) 4,330 11.0 -24.0°
Enters shadow 20:36:10 12° 158° (SSE) 4,380 11.0 -24.0°
Drops below altitude 10° 20:39:13 10° 144° (SE) 4,758 - -24.4°
Sets 20:47:49 0° 119° (ESE) 6,339 - -25.3°
